www.pogodaiklimat.ru

Погода и климат >> Архив погоды >> Кувейт >> Mitribah


ПОГОДА в Mitribah

  • Прогноз погоды в Mitribah
  • Монитор погоды в Mitribah
  • Климат города

АРХИВ ПОГОДЫ в Mitribah

Время (UTC), дата Ветер
(напр.,м/с)
 
Видим.   Явления Облачность Т
(С)
Тd
(С)
f
(%)
Тe
(С)
Тes
(С)
Комфортность P
(гПа)
Po
(гПа)
Тmin
(С)
Tmax
(С)
R
(мм)
R24
(мм)
S
(см)
12 17.11 З 5-6
{8}
19 км н/о +27.2 +3.5 22 +26 +26 жарко 1016.3 1016.0
15 17.11 СЗ 3-3
{7}
10 км дым н/о +20.8 +1.3 27 +21 +21 комфорт 1017.6 1018.0
18 17.11 СЗ 2-2
{7}
11 км н/о +18.2 +1.0 31 +19 +19 1018.8 1019.0
21 17.11 ЮЗ 4-4
{4}
13 км н/о +14.2 -0.2 37 +13 +13 1018.9 1019.0 +11.1 +28.9
00 18.11 ЮЗ 4-4
{5}
18 км н/о +11.7 -0.8 42 +10 +10 1019.0 1019.0
03 18.11 ЮЗ 5-5
{5}
18 км н/о +10.5 -0.7 46 +8 +8 1019.9 1020.0
06 18.11 ЮЗ 4-5
{5}
18 км н/о +18.9 +1.8 32 +19 +19 1021.5 1022.0
09 18.11 СЗ 1-3
{5}
17 км н/о +27.6 +2.9 20 +26 +26 жарко 1019.5 1020.0
12 18.11 ЮЗ 2-4
{5}
19 км н/о +27.7 +1.4 18 +26 +26 жарко 1018.3 1018.0
15 18.11 С 2-2
{4}
11 км н/о +21.6 +0.2 24 +21 +21 комфорт 1018.9 1019.0
18 18.11 В 2-2
{5}
10 км н/о +17.6 +4.5 42 +18 +18 1020.0 1020.0
21 18.11 ЮВ 3-4
{5}
8000 м дымка н/о +17.2 +12.3 73 +17 +17 1019.6 1020.0 +9.7 +28.8
00 19.11 ЮВ 3-4
{5}
8000 м дымка н/о +15.8 +11.7 77 +15 +15 1019.3 1019.0
03 19.11 ЮВ 3-3
{5}
8000 м дымка н/о +15.4 +11.2 76 +15 +15 1019.9 1020.0
06 19.11 ЮВ 4-6
{6}
17 км н/о +20.6 +10.9 54 +23 +23 комфорт 1021.0 1021.0
09 19.11 В 5-9
{10}
18 км н/о +26.1 +7.9 31 +26 +26 жарко 1018.7 1019.0
12 19.11 В 4-8
{11}
17 км н/о +26.3 +9.3 34 +27 +27 жарко 1017.1 1017.0
15 19.11 В 6-7
{9}
18 км н/о +22.0 +14.6 63 +25 +25 комфорт 1018.0 1018.0
18 19.11 В 5-6
{9}
10 км н/о +19.1 +15.9 82 +20 +20 1018.5 1019.0
21 19.11 В 2-3
{6}
6000 м дымка н/о +17.4 +15.8 90 +18 +18 1018.0 1018.0 +14.3 +27.1
00 20.11 ЮВ 5-7
{7}
7000 м дымка н/о +16.9 +12.4 75 +16 +16 1017.8 1018.0
03 20.11 ЮВ 5-7
{8}
8000 м дымка н/о +17.5 +13.2 76 +17 +17 1018.1 1018.0
06 20.11 ЮВ 8-11
{11}
11 км н/о +22.8 +14.1 58 +26 +26 жарко 1018.8 1019.0
09 20.11 ЮВ 7-12
{12}
19 км н/о +28.7 +7.2 26 +28 +28 жарко 1016.4 1016.0
12 20.11 В 5-8
{13}
18 км н/о +27.9 +11.6 36 +29 +29 жарко 1014.6 1015.0
15 20.11 В 4-6
{11}
14 км н/о +23.0 +14.7 60 +27 +27 душно 1015.4 1015.0
18 20.11 В 2-3
{11}
2000 м дымка н/о +19.8 +18.9 95 +23 +23 комфорт 1015.9 1016.0
21 20.11 В 2-5
{7}
2400 м дымка н/о +20.7 +19.8 95 +26 +26 душно 1014.8 1015.0 +16.4 +30.3
00 21.11 ЮВ 6-8
{13}
7000 м дымка н/о +21.8 +17.3 76 +26 +26 душно 1013.5 1014.0
03 21.11 ЮВ 5-7
{9}
11 км н/о +22.0 +15.3 66 +26 +26 душно 1013.1 1013.0
09 21.11 В 3-4
{7}
19 км {ливн. осадки, дождь} н/о +23.1 +13.4 54 +26 +26 жарко 1011.7 1012.0
12 21.11 В 9-12
{16}
9000 м в посл. час дождь {ливн. осадки} н/о +20.5 +17.8 85 +24 +24 комфорт 1011.7 1012.0
15 21.11 В 3-5
{11}
10 км {дождь, дымка} н/о +19.2 +16.3 83 +21 +21 комфорт 1011.6 1012.0
18 21.11 В 3-5
{11}
2000 м дымка {дождь} н/о +16.6 +16.3 98 +16 +16 1012.2 1012.0
21 21.11 В 1-2
{5}
8000 м дымка н/о +15.2 +13.3 88 +16 +16 1011.4 1011.0 +15.1 +23.7
00 22.11 Ю 7-9
{9}
15 км н/о +16.5 +12.7 78 +15 +15 1010.8 1011.0
03 22.11 Ю 8-9
{9}
14 км н/о +17.4 +14.3 82 +16 +16 1011.3 1011.0
06 22.11 ЮЗ 7-8
{10}
18 км ливневой дождь н/о +19.4 +15.2 77 +21 +21 комфорт 1012.4 1012.0
09 22.11 З 7-9
{11}
18 км {ливн. осадки, дождь} н/о +26.4 +9.7 35 +27 +27 жарко 1011.0 1011.0
12 22.11 З 8-10
{11}
20 км {ливн. осадки, дождь} н/о +26.4 +6.9 29 +26 +26 жарко 1010.6 1011.0
15 22.11 З 8-10
{10}
5000 м дымка н/о +20.8 +11.3 54 +22 +22 комфорт 1012.6 1013.0
18 22.11 З 6-8
{10}
11 км н/о +17.4 +6.1 47 +17 +17 1014.5 1015.0
21 22.11 З 5-6
{8}
9000 м дымка н/о +14.7 +5.3 53 +13 +13 1014.4 1014.0 +14.7 +27.7
00 23.11 З 5-6
{8}
20 км н/о +12.2 +3.7 56 +10 +10 1015.4 1015.0
03 23.11 З 4-4
{6}
20 км н/о +11.8 +3.3 56 +10 +10 1016.3 1016.0
06 23.11 З 5-6
{8}
19 км н/о +18.3 +4.3 40 +18 +18 1017.9 1018.0
09 23.11 З 6-10
{10}
19 км н/о +23.5 +2.2 25 +23 +23 комфорт 1016.4 1016.0
12 23.11 З 5-7
{11}
19 км н/о +22.8 +1.6 25 +22 +22 комфорт 1015.6 1016.0
15 23.11 СЗ 3-3
{11}
15 км н/о +17.2 +1.7 35 +17 +17 1016.8 1017.0
18 23.11 СВ 2-2
{11}
20 км н/о +15.8 +2.2 40 +16 +16 1017.5 1018.0
21 23.11 Ю 3-4
{4}
19 км н/о +11.4 +1.2 49 +10 +10 1018.1 1018.0 +10.2 +24.2
00 24.11 Ю 5-6
{6}
20 км н/о +10.2 +0.8 52 +8 +8 1018.7 1019.0
03 24.11 ЮЗ 5-5
{6}
20 км н/о +7.6 0.0 59 +4 +4 1020.0 1020.0
06 24.11 ЮЗ 7-8
{8}
19 км н/о +14.1 +2.4 45 +12 +12 1021.5 1022.0

 

Местоположение метеостанции Mitribah (Кувейт): широта 29.82 долгота 47.37 высота над уровнем моря 119 м.

В архиве по умолчанию представлена погода в Mitribah за последнюю неделю. Архивные данные за месяц целиком и за предыдущие месяцы, начиная с января 2011 года, Вы можете получить, выбрав интересующий диапазон дат из раскрывающегося списка и нажав кнопку "Ввод!".

Внимание! Время в таблицах - всемирное. Для получения местного времени необходимо прибавить поправку, которая в Mitribah равна 3 ч.

Смотрите также архив погоды в соседних городах и на ближайших метеорологических станциях:

Погода в Jal Aliyah (Кувейт) (31 км)
Погода в Abdaly (Кувейт) (43 км)
Погода в Sabriyah (Кувейт) (47 км)
Погода в Jahra (Кувейт) (63 км)
Погода в Abraque Al Habari (Кувейт) (68 км)
Погода в Sulaibiya (Кувейт) (70 км)
Погода в Experimental Farm (Кувейт) (81 км)
Погода в Minagish (Кувейт) (85 км)
Погода в Kuwait City (Кувейт) (85 км)
Погода в Basrah Airport (Ирак) (87 км)

Пояснения к столбцам:

Ветер - указаны скорость ветра в м/с - средняя за 10 мин, порывы в срок и между сроками (в фигурных скобках) и направление, откуда дует ветер: С - северный, СВ - северо-восточный, В - восточный, ЮВ - юго-восточный, Ю - южный, ЮЗ - юго-западный, З - западный, СЗ - северо-западный.
Видимость - горизонтальная дальность видимости в метрах или километрах. При видимости от 1 до 10 км при отсутствии осадков обычно наблюдается дымка, при ухудшении видимости до 1 км и менее - туман. В сухую погоду видимость может ухудшаться дымом, пылью или мглою.
Явления - указаны атмосферные явления, наблюдавшиеся в срок или в последний час перед сроком; фигурными скобками обозначены явления, наблюдавшиеся между сроками (за 1-3 часа до срока); квадратными скобками обозначены град или гололедные отложения с указанием их диаметра в мм.
Облачность - указаны через наклонную черту общая и нижняя облачность в баллах и высота нижней границы облаков в метрах; квадратными скобками обозначены формы облаков: Ci - перистые, Cs - перисто-слоистые, Cc - перисто-кучевые, Ac - высококучевые, As - высокослоистые, Sc - слоисто-кучевые, Ns - слоисто-дождевые, Cu - кучевые, Cb - кучево-дождевые. Подробнее классификацию облаков см. в Атласе облаков (PDF).
T - Температура воздуха - температура, измеренная на высоте 2 м над землей.
Td - Температура точки росы - температура, при понижении до которой содержащийся в воздухе водяной пар достигнет насыщения.
f - Относительная влажность воздуха - влажноcть воздуха, измеренная на высоте 2 м над землей.
Te - Эффективная температура - температура, которую ощущает одетый по сезону человек в тени. Характеристика душности погоды. При расчете учитывается влияние влажности воздуха и скорости ветра на теплоощущения человека.
Tes - Эффективная температура на солнце - температура, которую ощущает человек, с поправкой на солнечный нагрев. Характеристика знойности погоды. Зависит от высоты солнца над горизонтом, облачности и скорости ветра. Ночью, в пасмурную погоду, а также при ветре 12 м/с и более поправка равна нулю.
P - Атмосферное давление - приведенное к уровню моря атмосферное давление.
Po - Атмосферное давление - измеренное на уровне метеостанции атмосферное давление.
Tmin - Минимальная температура - минимум температуры воздуха на высоте 2 м над землей.
Tmax - Максимальная температура - максимум температуры воздуха на высоте 2 м над землей.
R - Количество осадков - Количество выпавших осадков за период времени, мм. При наведении курсора мыши на число - период времени, за который выпало указанное количество осадков.
R24 - Количество осадков - Количество выпавших осадков за 24 часа, мм.
S - Снежный покров - Высота снежного покрова, см. При наведении курсора мыши на число - состояние снежного покрова и степень покрытия местности в баллах.